Flag for U.S.A. Weather past 2 weeks in Mobile, Alabama, U.S.A.

Now
73 °F

Clear.


Feels Like: 69 °F
Forecast: 72 / 87 °F
Wind: 5 mph from Northwest

Location: Mobile Downtown Airport

Current Time: Jul 23, 2014 at 2:48:57 AM

Latest Report: Jul 23, 2014 at 12:53 AM


Visibility: 9 mi

Pressure: 30.05 "Hg

Humidity: 97%

Dew point: 72 °F

Location of MobileLocation

Historic Weather in Mobile — Graph

°F

Mobile temperature yesterday

Maximum temperature yesterday: 86 °F (at 11:53 AM)
Minimum temperature yesterday: 74 °F (at 9:53 PM)
Average temperature yesterday: 78 °F

Past Weeks' High & Low Weather Summary

 TemperatureHumidityPressure
High92 °F (Jul 12, 1:53 PM)100% (Jul 11, 2:53 AM)30.16 "Hg (Jul 11, 2:53 AM)
Low64 °F (Jul 17, 5:53 AM)42% (Jul 16, 3:53 PM)29.90 "Hg (Jul 15, 5:53 PM)
Average79 °F82%30.04 "Hg
* Reported Jul 7 11:53 PM — Jul 22 11:53 PM, Mobile, Weather by CustomWeather, © 2014

Note: Actual official high and low records may vary slightly from our data, if they occured in-between our weather recording intervals... More about our weather records

Advertising

Mobile weather history for previous 24 hours

 ConditionsComfort  
Time TempWeatherWind HumidityBarometerVisibility
11:53 PM
Jul 22
75 °FClear.5 mph94%30.06 "Hg10 mi
10:53 PM74 °FClear.No wind97%30.06 "Hg7 mi
9:53 PM74 °FLight rain. Fog.No wind97%30.05 "Hg5 mi
8:53 PM77 °FHeavy rain. Fog.9 mph88%30.07 "Hg4 mi
7:53 PM80 °FThundershowers. Partly sunny.8 mph74%30.04 "Hg10 mi
6:53 PM82 °FSunny.3 mph74%30.02 "Hg10 mi
11:53 AM86 °FScattered clouds.9 mph72%30.04 "Hg10 mi
10:53 AM84 °FScattered clouds.8 mph80%30.05 "Hg10 mi
9:53 AM82 °FScattered clouds.3 mph82%30.05 "Hg9 mi
8:53 AM81 °FFog.3 mph88%30.04 "Hg6 mi
7:53 AM80 °FFog.No wind90%30.04 "Hg4 mi
6:53 AM76 °FFog.3 mph97%30.02 "Hg4 mi
5:53 AM76 °FPassing clouds.3 mph97%30.01 "Hg7 mi
4:53 AM75 °FPassing clouds.3 mph96%29.99 "Hg8 mi
3:53 AM76 °FClear.5 mph97%29.98 "Hg8 mi
2:53 AM76 °FClear.No wind97%29.98 "Hg8 mi
Weather by CustomWeather, © 2014

See weather overviewHow to use our weather pages